Wind_Speed
11 11 10 11 13 13 13 11 10 10 11 10 9 9 9 8 7 7 8 8 6 4 1 2 1 1 2 2 4 7 6 9 11 10 12 13 14 14 16 14 13 13 13 14 13 13 13 11 9
10 11 10 12 13 13 13 13 13 13 11 9 9 9 9 9 10 8 5 7 9 9 7 5 3 3 3 3 1 4 5 5 5 8 9 11 13 14 14 14 13 12 11 11 10 10 9 8 6
10 11 12 12 12 12 12 12 13 14 14 13 11 10 9 10 10 9 7 4 6 9 11 9 8 6 6 6 7 6 5 7 7 6 8 8 9 11 12 12 13 12 12 9 8 7 8 8 6
10 10 11 12 13 12 12 12 13 13 13 13 13 13 12 12 11 11 9 6 4 5 8 11 12 12 10 9 9 9 11 9 8 8 9 9 10 11 11 13 13 12 11 10 10 9 8 7 7
10 10 12 11 12 12 13 13 13 13 12 13 12 13 13 13 13 11 10 9 7 5 5 7 11 12 13 14 13 13 13 13 13 12 10 10 10 11 13 13 12 11 11 10 10 10 11 10 10
14 13 14 14 13 14 13 13 13 14 13 12 12 14 13 12 11 11 9 9 9 8 7 7 7 10 12 14 16 16 16 16 15 15 15 14 13 13 12 12 12 13 13 12 11 11 10 10 9
16 15 16 16 16 17 16 17 16 15 16 16 15 16 17 15 13 11 10 9 9 10 11 10 9 10 11 13 14 16 17 18 19 19 18 18 18 17 16 16 16 16 15 15 14 13 13 12 11
20 19 17 19 20 20 19 18 20 19 19 19 22 18 19 17 17 16 14 13 12 12 11 11 11 12 12 13 13 14 16 17 19 20 22 22 21 21 21 21 20 20 20 19 19 18 18 18 17
23 22 20 23 23 21 21 20 22 21 20 22 26 23 21 19 20 21 20 19 17 17 16 14 15 13 13 15 16 16 16 17 19 19 21 22 23 24 23 24 24 23 22 23 23 24 24 24 24
25 23 23 25 26 25 24 22 25 24 22 24 25 28 24 24 22 23 25 26 24 24 22 21 22 21 19 18 18 19 20 20 21 21 22 23 24 25 26 26 26 27 27 26 26 27 27 27 26
27 26 25 25 28 27 24 22 25 27 22 26 28 27 28 27 27 26 27 30 31 30 28 27 27 27 26 24 23 23 24 23 23 24 25 25 25 25 27 28 28 29 30 30 31 31 31 30 30
28 25 26 25 28 29 28 25 27 30 23 30 29 29 29 31 31 29 27 28 33 34 35 35 33 33 31 30 29 29 28 27 26 27 26 24 27 28 28 28 30 32 33 34 34 34 33 33 33
32 31 29 28 29 29 32 27 35 26 29 29 30 28 30 30 29 28 25 25 29 30 34 38 39 38 36 34 33 34 32 31 31 30 29 29 28 27 28 30 31 32 32 33 34 34 34 35 36
38 36 32 32 33 35 38 31 35 24 38 35 33 30 32 32 31 27 27 27 27 29 31 34 37 40 39 38 37 36 35 34 34 34 33 33 32 30 30 32 34 34 34 33 33 32 32 33 34
43 42 36 31 35 43 45 38 32 31 39 39 35 34 34 33 32 31 31 32 33 32 33 35 38 38 38 38 35 36 37 38 38 38 37 36 34 34 32 33 35 37 37 37 36 34 35 36 36
44 45 42 34 38 43 48 46 32 36 38 37 36 35 38 37 37 35 38 40 40 39 38 37 36 36 35 33 32 32 33 37 39 39 40 38 37 36 36 35 36 37 38 37 38 37 37 38 37
45 51 48 43 34 44 50 49 39 36 39 36 34 35 34 34 34 36 40 43 44 42 41 39 37 35 35 35 33 33 34 37 38 38 39 39 39 39 39 39 39 38 39 39 38 39 40 40 40
51 54 52 50 38 43 51 52 43 39 39 35 35 35 33 33 32 35 40 40 41 42 40 38 39 38 39 37 36 37 36 37 36 36 37 39 40 41 41 42 41 39 37 39 41 41 41 41 41
53 55 56 48 45 52 46 51 47 41 40 36 36 34 36 37 27 29 34 36 38 38 37 36 36 38 39 40 38 38 36 40 39 38 38 38 41 43 44 45 45 42 41 42 41 41 41 41 43
53 55 54 53 49 51 51 51 48 48 42 38 35 30 33 33 32 35 34 35 37 38 36 36 34 35 38 41 43 45 43 41 41 39 40 42 42 44 45 47 45 42 42 45 43 42 42 42 43
49 52 51 55 50 51 54 57 54 48 45 37 41 42 41 38 37 33 29 28 25 28 31 33 33 31 34 38 43 48 48 47 44 43 46 47 47 45 46 47 45 44 46 47 44 43 43 43 44
50 48 52 52 53 56 53 55 53 56 52 50 49 48 44 35 33 36 37 37 32 42 43 40 37 38 36 37 39 41 46 48 50 49 50 50 48 47 46 46 46 44 42 44 44 44 43 44 43
57 56 55 58 58 62 61 60 58 58 61 56 53 48 45 47 50 50 44 45 44 43 47 47 45 43 39 39 39 40 41 47 49 51 52 52 52 49 49 48 47 46 45 47 47 46 46 45 44
55 57 58 62 64 64 62 62 61 63 63 61 47 23 48 56 54 56 58 56 54 49 47 49 51 50 48 43 43 43 43 44 48 53 56 57 56 54 50 49 48 47 48 48 48 49 48 46 47
51 53 58 62 61 63 65 67 68 66 63 63 60 60 57 57 58 61 60 61 58 53 48 50 51 54 58 56 52 48 47 47 48 51 54 55 54 53 51 50 50 50 50 51 51 51 50 49 48
59 60 63 64 67 68 64 70 66 66 66 61 65 67 63 63 63 66 65 61 58 59 59 57 54 55 59 62 61 60 55 54 54 54 55 59 59 55 52 50 51 48 50 51 51 51 51 52 52
68 66 60 65 66 68 74 76 71 64 67 69 68 67 65 66 66 63 62 62 64 63 59 56 52 46 51 55 57 60 60 56 56 58 61 62 61 59 51 50 49 50 50 50 50 50 50 53 54
63 62 64 63 64 68 71 74 75 68 67 68 70 74 75 73 70 69 70 70 69 65 65 55 51 49 51 56 61 66 63 60 59 61 66 67 66 65 61 56 55 56 56 54 54 52 55 55 55
67 67 68 69 70 69 67 71 70 67 65 67 69 68 68 68 68 67 67 66 66 64 64 65 57 52 56 58 63 65 64 65 59 56 62 62 59 58 60 60 60 60 62 64 66 68 62 61 60
74 71 64 59 55 68 70 65 61 60 63 66 65 64 68 69 68 67 66 66 66 68 69 64 64 60 61 66 65 68 65 58 58 62 63 65 61 61 63 66 65 63 68 74 74 72 67 64 61
Wind_Direction
3 6 18 26 30 30 29 30 31 29 25 9 359 1 12 9 349 316 306 296 286 293 309 332 327 19 67 93 151 136 134 144 154 164 161 155 153 159 164 165 180 175 173 188 189 201 220 231 239
10 13 19 27 32 34 33 30 30 33 26 15 356 357 9 17 15 9 325 295 281 275 277 271 268 253 264 259 232 201 190 179 167 162 174 171 164 161 162 162 167 170 170 171 172 173 177 182 196
20 16 13 20 22 22 23 23 24 22 19 12 1 359 2 5 13 12 17 336 291 279 273 271 268 258 250 246 246 247 230 220 218 206 185 184 181 176 168 170 173 167 169 169 172 170 175 181 190
10 5 2 1 2 1 4 6 8 9 6 3 356 0 360 357 353 357 357 5 340 292 276 271 268 265 256 253 249 241 237 230 229 227 223 211 196 196 193 193 190 179 177 181 185 188 194 207 210
345 344 349 349 345 342 344 348 351 350 351 349 347 344 347 350 350 348 342 342 335 333 310 283 273 267 265 264 260 255 248 240 232 233 236 233 229 226 217 214 211 212 212 212 210 209 213 215 221
323 320 323 327 327 321 322 323 327 326 327 328 323 320 328 328 337 343 340 327 324 322 313 302 290 281 272 266 264 263 263 261 254 246 245 247 242 233 236 244 241 239 241 240 235 230 235 238 242
311 312 311 307 305 304 308 307 306 305 303 303 297 296 304 311 309 307 313 313 308 304 304 302 296 284 277 272 268 264 264 264 265 264 257 251 249 246 244 245 250 253 253 253 252 246 252 261 264
307 307 304 300 295 294 296 294 295 295 288 287 279 281 289 299 298 294 292 289 293 293 295 294 289 285 281 276 270 266 265 264 263 265 264 260 256 251 247 248 252 257 258 256 256 258 262 265 266
305 309 304 295 295 291 290 293 292 292 288 279 278 278 284 283 280 283 280 278 277 276 281 284 281 280 278 273 274 275 275 271 268 266 265 265 263 261 256 253 250 251 256 259 260 260 260 261 264
303 309 299 299 295 297 297 296 290 289 285 280 276 279 280 278 276 274 278 279 275 273 273 274 275 274 271 272 272 273 273 273 272 270 267 264 263 262 261 258 254 252 254 258 260 260 260 262 263
313 313 300 299 298 301 301 296 292 285 284 280 276 278 282 279 276 275 270 274 278 275 272 268 267 265 267 267 266 266 268 271 271 270 267 267 266 264 262 261 259 259 259 259 262 263 263 263 262
301 302 295 302 302 303 298 298 289 283 289 278 285 291 289 284 282 278 274 272 271 271 272 272 269 267 263 262 265 265 266 268 269 271 273 271 268 266 265 265 262 259 259 260 261 261 261 262 262
294 292 295 295 300 299 294 294 289 313 285 289 294 296 293 290 285 281 277 280 276 273 271 270 269 266 264 261 259 261 263 265 266 269 269 270 271 273 271 266 264 261 259 259 260 260 261 261 261
289 286 288 294 298 292 283 278 291 307 288 291 293 290 287 290 290 288 283 280 280 277 275 274 272 267 265 262 260 261 262 264 265 264 264 265 268 271 272 270 267 265 264 263 261 260 261 261 261
291 289 288 290 282 280 281 281 290 288 284 286 286 291 292 291 290 290 287 281 277 275 273 273 271 268 266 267 266 265 263 261 260 260 261 262 263 266 270 267 267 266 265 264 263 263 264 263 262
289 288 284 275 280 283 281 284 282 279 281 286 292 296 298 295 291 287 279 275 270 269 270 270 274 275 275 272 269 270 269 267 264 263 262 263 262 262 264 266 265 266 265 264 264 263 263 264 264
289 285 286 288 287 283 281 281 283 278 279 286 291 292 288 287 286 280 276 277 275 270 272 274 273 277 273 271 271 271 273 272 269 265 263 262 260 261 262 265 265 265 265 262 261 261 261 263 266
287 288 289 290 292 278 279 284 283 284 284 290 292 294 290 278 275 277 275 278 279 278 274 271 272 273 275 277 276 276 275 273 269 263 261 261 261 261 262 265 266 266 266 261 260 260 261 264 267
287 288 288 291 290 284 284 283 287 284 284 288 286 290 283 282 274 270 279 282 285 283 284 281 278 273 270 273 274 272 270 267 267 264 262 264 266 266 265 266 268 266 262 260 259 257 258 262 264
283 283 287 286 286 284 286 282 281 286 293 294 291 283 284 278 278 280 276 273 277 282 284 284 280 279 276 274 271 270 269 267 265 264 263 266 266 263 260 261 261 261 258 256 255 253 256 259 263
277 278 279 280 280 278 283 285 286 289 290 290 285 282 280 285 288 285 284 277 275 277 281 282 282 280 277 273 273 273 270 269 263 261 262 265 265 266 263 262 261 262 259 256 254 253 255 259 263
276 278 277 278 278 279 279 281 285 288 290 289 286 290 291 283 272 271 276 273 279 290 290 285 278 275 271 273 274 274 275 272 268 263 258 262 264 265 264 263 261 259 262 259 253 254 256 261 263
280 277 276 276 274 277 278 279 283 286 290 291 294 299 301 295 290 281 275 272 274 277 279 281 282 279 273 271 270 272 271 273 270 265 263 264 265 266 266 265 265 263 257 254 253 253 256 260 263
281 279 277 274 272 271 274 277 277 280 283 288 298 293 289 286 288 287 287 286 286 282 277 278 282 277 272 265 263 263 266 265 267 268 267 265 263 263 263 263 261 260 260 257 256 255 257 258 261
283 282 282 280 278 277 275 271 273 275 280 284 286 282 280 283 286 284 287 290 291 290 285 281 275 277 274 270 264 254 252 254 257 261 264 264 264 264 262 256 253 252 250 251 253 255 255 258 262
280 281 280 286 284 280 275 271 271 275 280 284 279 279 282 284 284 284 285 285 286 286 286 280 275 270 264 265 272 270 262 254 252 251 252 257 261 258 256 256 256 253 251 250 251 253 257 262 266
285 285 290 285 282 281 279 279 274 275 275 274 275 275 277 279 279 281 280 280 280 280 280 280 276 264 257 253 255 259 258 255 251 251 253 253 253 254 252 252 253 254 254 254 255 257 259 262 266
287 288 286 284 283 284 285 285 280 274 270 269 269 271 272 272 274 275 277 277 275 275 277 272 266 263 254 255 254 252 248 251 255 260 263 255 252 251 248 248 250 252 252 253 255 260 269 269 269
283 282 280 282 282 283 284 287 287 282 278 272 271 270 269 269 268 269 270 270 268 265 266 265 257 254 253 251 255 254 251 252 254 255 254 252 248 248 248 247 250 251 253 253 254 261 268 269 269
284 284 282 279 269 277 283 281 281 281 282 282 275 272 273 274 269 265 267 269 266 264 261 259 257 256 252 249 250 250 252 255 255 252 250 252 249 252 256 257 255 260 263 264 264 263 265 264 265
Height
5882 5882 5880 5880 5882 5879 5877 5878 5877 5876 5875 5874 5874 5873 5872 5871 5870 5871 5869 5869 5869 5870 5871 5872 5872 5873 5873 5874 5875 5875 5875 5875 5876 5876 5875 5875 5876 5877 5877 5878 5880 5881 5881 5883 5883 5884 5886 5887 5888
5883 5882 5881 5880 5880 5879 5879 5878 5877 5876 5875 5875 5874 5873 5872 5871 5869 5868 5867 5867 5867 5868 5869 5870 5870 5871 5872 5873 5874 5875 5876 5875 5875 5876 5877 5877 5876 5876 5877 5877 5878 5879 5880 5881 5882 5882 5884 5884 5885
5883 5882 5882 5881 5880 5879 5879 5878 5877 5876 5875 5875 5875 5873 5872 5871 5869 5868 5866 5866 5866 5866 5867 5867 5868 5869 5870 5871 5872 5873 5874 5875 5875 5875 5876 5876 5876 5876 5876 5877 5879 5878 5879 5880 5880 5881 5882 5883 5884
5883 5883 5883 5881 5880 5879 5878 5878 5877 5877 5876 5875 5874 5873 5872 5871 5870 5868 5866 5865 5865 5865 5865 5865 5866 5867 5868 5868 5869 5870 5871 5872 5873 5874 5874 5874 5874 5876 5875 5877 5877 5876 5877 5878 5879 5879 5880 5881 5882
5882 5882 5881 5881 5880 5879 5878 5877 5876 5876 5875 5874 5874 5872 5871 5869 5869 5868 5866 5865 5864 5863 5863 5863 5863 5864 5864 5865 5866 5867 5868 5869 5870 5870 5871 5872 5872 5873 5874 5874 5874 5875 5876 5876 5876 5877 5878 5879 5879
5881 5881 5880 5879 5879 5878 5878 5877 5875 5874 5873 5873 5871 5870 5870 5868 5867 5866 5865 5864 5864 5862 5862 5861 5861 5861 5861 5862 5862 5863 5864 5865 5866 5867 5868 5868 5869 5870 5871 5870 5871 5872 5873 5873 5873 5874 5875 5875 5876
5878 5878 5877 5876 5876 5874 5875 5874 5873 5871 5870 5870 5870 5868 5867 5866 5865 5864 5863 5862 5861 5861 5861 5860 5859 5859 5858 5858 5859 5859 5860 5861 5861 5863 5864 5864 5865 5865 5866 5867 5868 5868 5868 5868 5870 5869 5871 5871 5871
5874 5874 5874 5872 5871 5871 5871 5870 5869 5868 5866 5865 5863 5864 5864 5864 5863 5862 5861 5860 5859 5858 5858 5858 5857 5857 5857 5856 5856 5856 5856 5857 5857 5858 5858 5859 5860 5861 5862 5862 5863 5864 5864 5865 5866 5866 5867 5867 5868
5870 5871 5870 5867 5866 5866 5866 5866 5864 5863 5863 5861 5858 5859 5860 5860 5859 5857 5857 5856 5856 5855 5855 5855 5854 5854 5854 5853 5853 5852 5853 5853 5853 5853 5854 5854 5854 5855 5856 5857 5858 5859 5860 5861 5861 5862 5863 5863 5863
5866 5867 5864 5862 5861 5861 5861 5861 5859 5858 5857 5855 5855 5852 5854 5854 5854 5853 5852 5852 5852 5852 5852 5851 5850 5850 5850 5849 5849 5849 5849 5849 5849 5849 5849 5849 5850 5850 5850 5851 5852 5854 5855 5856 5856 5857 5857 5857 5858
5863 5862 5859 5858 5855 5856 5856 5856 5853 5851 5854 5849 5848 5848 5847 5848 5848 5848 5848 5847 5845 5845 5846 5845 5845 5844 5845 5845 5845 5844 5844 5844 5844 5844 5844 5845 5845 5845 5845 5845 5846 5846 5847 5848 5849 5850 5850 5851 5851
5857 5857 5855 5854 5851 5850 5850 5851 5848 5845 5848 5842 5843 5843 5843 5842 5841 5841 5841 5840 5838 5838 5837 5837 5838 5837 5838 5838 5838 5838 5839 5838 5838 5838 5839 5839 5839 5839 5839 5839 5840 5840 5841 5842 5842 5843 5843 5843 5844
5849 5850 5849 5848 5846 5844 5842 5845 5839 5844 5839 5838 5838 5838 5837 5835 5835 5835 5836 5835 5832 5831 5829 5828 5828 5829 5830 5830 5830 5830 5831 5832 5832 5832 5832 5831 5831 5832 5832 5832 5832 5833 5833 5834 5834 5835 5835 5836 5836
5841 5842 5844 5844 5841 5836 5830 5835 5834 5842 5830 5831 5830 5831 5829 5828 5828 5829 5829 5829 5827 5824 5822 5820 5819 5819 5820 5821 5822 5823 5824 5824 5824 5824 5824 5825 5824 5824 5824 5824 5825 5825 5825 5825 5826 5826 5827 5827 5828
5831 5832 5835 5838 5832 5823 5820 5825 5831 5831 5824 5823 5825 5824 5822 5823 5822 5822 5821 5819 5818 5817 5814 5814 5810 5809 5811 5812 5815 5815 5815 5815 5815 5815 5816 5817 5817 5818 5818 5817 5816 5817 5817 5818 5818 5817 5818 5818 5819
5823 5819 5821 5829 5826 5819 5812 5812 5825 5819 5816 5816 5818 5819 5816 5815 5814 5813 5809 5805 5804 5804 5805 5803 5805 5804 5803 5804 5805 5807 5808 5808 5808 5808 5808 5809 5809 5809 5809 5810 5809 5809 5809 5810 5810 5810 5810 5811 5811
5816 5806 5810 5815 5824 5810 5800 5798 5812 5814 5808 5811 5812 5812 5810 5807 5806 5801 5797 5794 5792 5794 5796 5796 5796 5797 5797 5796 5797 5798 5799 5798 5799 5799 5799 5799 5800 5800 5801 5801 5801 5801 5801 5801 5801 5802 5802 5802 5802
5804 5801 5800 5800 5813 5804 5792 5789 5798 5801 5801 5803 5803 5802 5801 5796 5795 5792 5785 5783 5784 5784 5786 5788 5789 5790 5789 5788 5789 5790 5790 5789 5789 5789 5790 5789 5790 5790 5791 5791 5791 5792 5792 5792 5792 5793 5793 5792 5792
5793 5790 5787 5793 5794 5785 5792 5784 5787 5792 5792 5795 5794 5792 5788 5786 5786 5781 5779 5778 5776 5776 5777 5778 5780 5780 5780 5780 5779 5778 5780 5778 5779 5780 5780 5780 5780 5780 5780 5779 5780 5782 5782 5781 5782 5783 5783 5783 5783
5786 5780 5781 5779 5780 5776 5775 5772 5776 5778 5785 5783 5784 5780 5776 5775 5777 5774 5770 5768 5767 5767 5768 5769 5769 5770 5771 5769 5770 5768 5768 5768 5768 5769 5770 5770 5769 5767 5767 5767 5767 5768 5769 5770 5771 5772 5772 5773 5773
5774 5771 5771 5766 5768 5768 5763 5760 5763 5771 5773 5774 5770 5767 5767 5768 5768 5768 5765 5762 5760 5759 5759 5759 5759 5758 5759 5759 5757 5757 5758 5758 5757 5757 5757 5756 5756 5756 5756 5755 5757 5757 5757 5758 5759 5762 5763 5763 5763
5762 5764 5761 5757 5755 5752 5754 5748 5755 5756 5758 5758 5756 5752 5752 5753 5753 5754 5754 5755 5754 5750 5748 5747 5747 5746 5744 5745 5746 5747 5747 5747 5747 5745 5742 5742 5743 5745 5746 5746 5746 5746 5746 5748 5748 5749 5752 5752 5752
5755 5751 5750 5749 5746 5745 5741 5742 5745 5745 5742 5740 5737 5737 5740 5740 5738 5737 5739 5738 5741 5741 5739 5735 5734 5734 5733 5732 5733 5734 5735 5736 5736 5734 5733 5732 5732 5732 5733 5734 5735 5737 5736 5736 5736 5738 5738 5739 5739
5740 5738 5734 5732 5733 5732 5736 5734 5737 5734 5731 5729 5725 5728 5725 5717 5719 5722 5723 5721 5723 5725 5727 5727 5726 5722 5721 5718 5716 5718 5720 5720 5722 5723 5723 5721 5718 5719 5718 5720 5721 5722 5724 5725 5726 5725 5725 5726 5725
5725 5723 5718 5715 5715 5721 5721 5723 5729 5726 5725 5719 5717 5710 5703 5703 5704 5705 5704 5704 5704 5706 5707 5709 5711 5710 5708 5706 5704 5699 5700 5702 5703 5706 5708 5706 5706 5706 5705 5704 5704 5706 5707 5709 5711 5712 5712 5712 5712
5710 5709 5707 5697 5699 5700 5701 5700 5720 5719 5711 5706 5697 5694 5692 5689 5687 5686 5689 5689 5687 5689 5690 5692 5692 5693 5693 5692 5691 5690 5687 5685 5686 5687 5687 5689 5691 5690 5690 5691 5692 5692 5693 5693 5695 5696 5698 5699 5698
5693 5691 5693 5680 5677 5673 5682 5683 5695 5709 5695 5687 5684 5680 5679 5675 5674 5674 5673 5675 5674 5670 5672 5672 5673 5673 5674 5673 5674 5674 5674 5672 5671 5671 5673 5671 5670 5673 5675 5676 5678 5679 5681 5681 5682 5682 5682 5682 5683
5676 5676 5669 5667 5656 5652 5650 5657 5664 5683 5673 5670 5668 5665 5663 5662 5661 5659 5657 5658 5658 5656 5652 5653 5655 5656 5657 5658 5658 5655 5653 5655 5655 5655 5655 5655 5654 5655 5655 5656 5659 5661 5663 5665 5666 5669 5670 5669 5668
5661 5655 5653 5650 5646 5635 5629 5629 5641 5646 5649 5649 5648 5646 5643 5642 5641 5640 5638 5638 5638 5637 5636 5635 5635 5637 5637 5639 5639 5639 5638 5638 5639 5637 5640 5640 5640 5640 5639 5639 5641 5644 5645 5646 5648 5651 5652 5654 5653
5639 5635 5634 5629 5630 5624 5616 5610 5617 5621 5623 5625 5628 5628 5623 5619 5620 5618 5618 5618 5617 5618 5617 5618 5616 5616 5617 5617 5618 5618 5618 5618 5620 5621 5621 5623 5625 5625 5626 5626 5626 5627 5629 5629 5631 5634 5634 5636 5636